Tracking 19832 objects as of 25-Aug-2019
HD Live streaming from Space Station
objects crossing your sky now

COSMOS 2275 (GLONASS)

Track COSMOS 2275 (GLONASS) now!
COSMOS 2275 (GLONASS) is classified as:


NORAD ID: 23045
Int'l Code: 1994-021C
Perigee: 19,071.5 km
Apogee: 19,202.6 km
Inclination: 64.7 °
Period: 675.7 minutes
Semi major axis: 25508 km
RCS: 3.4477 m2 (large)
Launch date: April 11, 1994
Source: Commonwealth of Independent States (former USSR) (CIS)
Launch site: TYURATAM MISSILE AND SPACE COMPLEX (TTMTR)
aabbcc
Your satellite tracking list
Your tracking list is empty




NASA's NSSDC Master Catalog

Two Line Element Set (TLE):
1 23045U 94021C   19235.90430612 -.00000022  00000-0  00000+0 0  9999
2 23045  64.7216  27.7144 0025687  39.7117 328.5764  2.13101990197450
Source of the keplerian elements: AFSPC